This demonstration page uses our WeatherBlox Daily Observations layout. Learn more.

Left ArrowRight Arrow

39.95238, -75.16362

Hourly Observations for May 6, 2018

Temp ( °F °C ) Dew Point ( °F °C ) Humidity (%) Winds ( mph kmh ) Pressure ( in mb ) Visibility ( mi km ) Precip ( " mm )
12:54 am 00:54 Cloudy 62 16.7 45 7.2 54 54 SSE 3 6 30.08 1019 10 16 0.00 0.00
1:54 am 01:54 Cloudy 60 15.6 45 7.2 58 58 S 5 7 30.07 1018 10 16 0.00 0.00
2:54 am 02:54 Cloudy 60 15.6 46 7.8 60 60 NE 3 6 30.04 1017 10 16 0.00 0.00
3:54 am 03:54 Cloudy 61 16.1 46 7.8 58 58 NNW 7 11 30.05 1018 10 16 0.00 0.00
4:54 am 04:54 Cloudy 61 16.1 45 7.2 56 56 Calm 30.02 1017 10 16 0.00 0.00
5:54 am 05:54 Cloudy 62 16.7 45 7.2 54 54 Calm 30.02 1017 10 16 0.00 0.00
6:54 am 06:54 Cloudy 61 16.1 49 9.4 65 65 NE 10 17 29.99 1016 10 16 0.00 0.00
7:54 am 07:54 Cloudy 62 16.7 48 8.9 60 60 NE 9 15 30.01 1016 10 16 0.00 0.00
8:54 am 08:54 Cloudy 61 16.1 49 9.4 65 65 ENE 8 13 29.97 1015 10 16 0.00 0.00
9:35 am 09:35 Cloudy 61 16.1 50 10 67 67 ENE 7 11 29.97 1015 10 16 0.00 0.00
9:49 am 09:49 Cloudy 63 17 48 9 59 59 NE 9 15 29.94 1014 10 16 0.00 0.00
9:54 am 09:54 Cloudy 62 16.7 49 9.4 62 62 ENE 10 17 29.95 1014 10 16 0.00 0.00
10:50 am 10:50 Cloudy 63 17 48 9 59 59 ENE 9 15 29.94 1014 10 16 0.00 0.00
10:54 am 10:54 Cloudy 63 17.2 49 9.4 60 60 ENE 9 15 29.92 1013 10 16 0.00 0.00
11:54 am 11:54 Cloudy 65 18.3 46 7.8 51 51 E 18 30 29.87 1012 10 16 0.00 0.00
12:54 pm 12:54 Cloudy 64 17.8 46 7.8 52 52 E 10 17 29.88 1012 10 16 0.00 0.00
1:54 pm 13:54 Cloudy 66 18.9 47 8.3 50 50 E 7 11 29.87 1012 10 16 0.00 0.00
2:54 pm 14:54 Cloudy 67 19.4 47 8.3 49 49 ENE 7 11 29.85 1011 10 16 0.00 0.00
3:32 pm 15:32 Cloudy 68 20 48 8.9 49 49 N 9 15 29.83 1010 10 16 0.00 0.00
3:54 pm 15:54 Cloudy 67 19.4 47 8.3 49 49 ENE 5 7 29.85 1011 10 16 0.00 0.00
4:54 pm 16:54 Mostly Cloudy 68 20 49 9.4 51 51 E 9 15 29.84 1011 10 16 0.00 0.00
5:54 pm 17:54 Mostly Cloudy 67 19.4 49 9.4 53 53 E 6 9 29.86 1011 10 16 0.00 0.00
6:32 pm 18:32 Cloudy with Light Rain 64 17.8 53 11.7 68 68 NNW 14 22 29.88 1012 8 13 0.00 0.03
6:42 pm 18:42 Cloudy with Light Rain 63 17.2 54 12.2 73 73 NNW 12 19 29.88 1012 8 13 0.00 0.03
6:54 pm 18:54 Cloudy with Light Rain 62 16.7 54 12.2 75 75 NNW 13 20 29.86 1011 8 13 0.00 0.03
7:17 pm 19:17 Mostly Cloudy 61 16.1 55 12.8 81 81 NNW 13 20 29.88 1012 10 16 0.00 0.03
7:54 pm 19:54 Cloudy with Light Rain 59 15 54 12.2 83 83 N 14 22 29.88 1012 10 16 0.00 0.03
8:54 pm 20:54 Cloudy 59 15 52 11.1 78 78 N 12 19 29.90 1013 10 16 0.00 0.03
9:54 pm 21:54 Cloudy 59 15 52 11.1 78 78 N 8 13 29.92 1013 10 16 0.00 0.00
10:54 pm 22:54 Cloudy 59 15 52 11.1 78 78 N 8 13 29.92 1013 10 16 0.00 0.00
11:54 pm 23:54 Cloudy 58 14.4 52 11.1 81 81 N 8 13 29.92 1013 10 16 0.00 0.00

Powered by AerisWeather